| time (UTC) | temp C | wind direction | speed KPH | gust KPH | rain 1hr cm | rain 24hr cm | rain mn cm | humidity % | barometer mb |
| 20260510073324 | 5 | 357 | 6.4 | 11.3 | 0.00 | 0.00 | 0.00 | 93 | 1024.0 |
| 20260510072822 | 5 | 346 | 4.8 | 8.0 | 0.00 | 0.00 | 0.00 | 93 | 1024.0 |
| 20260510072322 | 5 | 349 | 6.4 | 9.7 | 0.00 | 0.00 | 0.00 | 93 | 1024.0 |
| 20260510071824 | 5 | 352 | 6.4 | 14.5 | 0.00 | 0.00 | 0.00 | 93 | 1024.0 |
| 20260510071322 | 5 | 346 | 3.2 | 9.7 | 0.00 | 0.00 | 0.00 | 93 | 1024.0 |
| 20260510070825 | 5 | 351 | 4.8 | 8.0 | 0.00 | 0.00 | 0.00 | 92 | 1024.0 |
| 20260510070325 | 5 | 8 | 6.4 | 11.3 | 0.00 | 0.00 | 0.00 | 92 | 1024.0 |
| 20260510065823 | 5 | 9 | 4.8 | 8.0 | 0.00 | 0.00 | 0.00 | 92 | 1024.0 |
| 20260510065322 | 5 | 349 | 8.0 | 14.5 | 0.00 | 0.00 | 0.00 | 92 | 1024.0 |
| 20260510064822 | 6 | 7 | 4.8 | 9.7 | 0.00 | 0.00 | 0.00 | 92 | 1024.0 |
| 20260510064323 | 6 | 350 | 8.0 | 11.3 | 0.00 | 0.00 | 0.00 | 92 | 1024.0 |
| 20260510063823 | 6 | 349 | 6.4 | 11.3 | 0.00 | 0.00 | 0.00 | 91 | 1024.0 |
| 20260510063322 | 6 | 0 | 6.4 | 12.9 | 0.00 | 0.00 | 0.00 | 91 | 1024.0 |
| 20260510062823 | 6 | 349 | 6.4 | 9.7 | 0.00 | 0.00 | 0.00 | 90 | 1024.0 |
| 20260510062322 | 6 | 357 | 6.4 | 11.3 | 0.00 | 0.00 | 0.00 | 90 | 1024.0 |
| 20260510061823 | 6 | 355 | 6.4 | 9.7 | 0.00 | 0.00 | 0.00 | 90 | 1024.0 |
| 20260510061323 | 6 | 338 | 6.4 | 8.0 | 0.00 | 0.00 | 0.00 | 89 | 1024.0 |
| 20260510060826 | 6 | 6 | 4.8 | 8.0 | 0.00 | 0.00 | 0.00 | 88 | 1024.0 |
| 20260510060322 | 6 | 0 | 3.2 | 8.0 | 0.00 | 0.00 | 0.00 | 88 | 1024.0 |
| 20260510055822 | 6 | 354 | 8.0 | 14.5 | 0.00 | 0.00 | 0.00 | 87 | 1024.0 |
| 20260510055322 | 6 | 354 | 4.8 | 8.0 | 0.00 | 0.00 | 0.00 | 87 | 1024.0 |
| 20260510054822 | 7 | 333 | 11.3 | 16.1 | 0.00 | 0.00 | 0.00 | 86 | 1024.0 |
| 20260510054322 | 7 | 337 | 3.2 | 6.4 | 0.00 | 0.00 | 0.00 | 85 | 1024.0 |
| 20260510053822 | 7 | 3 | 9.7 | 16.1 | 0.00 | 0.00 | 0.00 | 83 | 1024.0 |
| 20260510053322 | 7 | 356 | 8.0 | 16.1 | 0.00 | 0.00 | 0.00 | 82 | 1024.0 |
| 20260510052822 | 7 | 10 | 8.0 | 12.9 | 0.00 | 0.00 | 0.00 | 83 | 1024.0 |
| 20260510052323 | 7 | 352 | 9.7 | 12.9 | 0.00 | 0.00 | 0.00 | 83 | 1024.0 |
| 20260510051822 | 7 | 343 | 8.0 | 17.7 | 0.00 | 0.00 | 0.00 | 83 | 1024.0 |
| 20260510051322 | 7 | 14 | 6.4 | 11.3 | 0.00 | 0.00 | 0.00 | 83 | 1024.0 |
| 20260510050822 | 7 | 348 | 9.7 | 14.5 | 0.00 | 0.00 | 0.00 | 84 | 1024.0 |
| 20260510050322 | 7 | 342 | 9.7 | 14.5 | 0.00 | 0.00 | 0.00 | 83 | 1024.0 |
| 20260510045822 | 7 | 0 | 8.0 | 16.1 | 0.00 | 0.00 | 0.00 | 83 | 1024.0 |
| 20260510045322 | 7 | 356 | 9.7 | 14.5 | 0.00 | 0.00 | 0.00 | 82 | 1024.0 |
| 20260510044822 | 7 | 5 | 11.3 | 14.5 | 0.00 | 0.00 | 0.00 | 82 | 1024.0 |
| 20260510044322 | 7 | 0 | 8.0 | 17.7 | 0.00 | 0.00 | 0.00 | 82 | 1024.0 |
| 20260510043823 | 7 | 17 | 9.7 | 16.1 | 0.00 | 0.00 | 0.00 | 82 | 1024.0 |
| 20260510043322 | 7 | 351 | 12.9 | 14.5 | 0.00 | 0.00 | 0.00 | 81 | 1024.0 |
| 20260510042822 | 7 | 349 | 14.5 | 22.5 | 0.00 | 0.00 | 0.00 | 80 | 1023.0 |
| 20260510042322 | 7 | 1 | 17.7 | 30.6 | 0.00 | 0.00 | 0.00 | 79 | 1024.0 |
| 20260510041825 | 7 | 356 | 16.1 | 20.9 | 0.00 | 0.00 | 0.00 | 78 | 1024.0 |
| 20260510041322 | 7 | 8 | 9.7 | 16.1 | 0.00 | 0.00 | 0.00 | 78 | 1024.0 |
| 20260510040823 | 7 | 358 | 16.1 | 20.9 | 0.00 | 0.00 | 0.00 | 78 | 1023.0 |
| 20260510040323 | 7 | 338 | 11.3 | 19.3 | 0.00 | 0.00 | 0.00 | 78 | 1023.0 |
| 20260510035822 | 8 | 14 | 12.9 | 24.1 | 0.00 | 0.00 | 0.00 | 77 | 1024.0 |
| 20260510035322 | 8 | 342 | 11.3 | 16.1 | 0.00 | 0.00 | 0.00 | 77 | 1023.0 |
| 20260510034822 | 8 | 353 | 12.9 | 22.5 | 0.00 | 0.00 | 0.00 | 77 | 1023.0 |
| 20260510034322 | 8 | 353 | 11.3 | 17.7 | 0.00 | 0.00 | 0.00 | 77 | 1023.0 |
| 20260510033822 | 8 | 0 | 14.5 | 22.5 | 0.00 | 0.00 | 0.00 | 77 | 1023.0 |
| 20260510033322 | 8 | 11 | 12.9 | 19.3 | 0.00 | 0.00 | 0.00 | 76 | 1023.0 |
| 20260510032822 | 8 | 8 | 14.5 | 20.9 | 0.00 | 0.00 | 0.00 | 76 | 1023.0 |
| 20260510032322 | 8 | 0 | 12.9 | 20.9 | 0.00 | 0.00 | 0.00 | 76 | 1023.0 |
| 20260510031822 | 8 | 13 | 12.9 | 20.9 | 0.00 | 0.00 | 0.00 | 76 | 1023.0 |
| 20260510031322 | 8 | 347 | 11.3 | 17.7 | 0.00 | 0.00 | 0.00 | 75 | 1022.0 |
| 20260510030823 | 8 | 347 | 17.7 | 29.0 | 0.00 | 0.00 | 0.00 | 74 | 1022.0 |
| 20260510030322 | 8 | 0 | 8.0 | 14.5 | 0.00 | 0.00 | 0.00 | 73 | 1022.0 |
| 20260510025823 | 9 | 7 | 9.7 | 19.3 | 0.00 | 0.00 | 0.00 | 71 | 1021.0 |
| 20260510025322 | 9 | 357 | 14.5 | 19.3 | 0.00 | 0.00 | 0.00 | 70 | 1021.0 |
| 20260510024823 | 9 | 5 | 9.7 | 19.3 | 0.00 | 0.00 | 0.00 | 69 | 1021.0 |
| 20260510024322 | 10 | 349 | 9.7 | 14.5 | 0.00 | 0.00 | 0.00 | 68 | 1021.0 |
| 20260510023822 | 10 | 350 | 12.9 | 19.3 | 0.00 | 0.00 | 0.00 | 67 | 1021.0 |
| 20260510023323 | 11 | 3 | 12.9 | 20.9 | 0.00 | 0.00 | 0.00 | 65 | 1020.0 |